sat.trackr.live / text

‹ back to catalog

STARLINK-35649

NORAD 66125 · 2025-237M

PAYLOAD ACTIVE UNKNOWN

§ Identity

Operator
Country
US
Launch date
2025-10-22
Launch site
AFWTR
Launch vehicle
Mass (kg)
RCS (m²)

Purposes: comms

External: N2YO · Heavens-Above · Gunter

§ Orbital elements

Epoch: 2026-05-24T23:13:33.130848Z

Period
94.11 min
Inclination
53.1605°
Eccentricity
0.0001259
Mean motion
15.30198446 rev/d
Perigee alt
474.4 km
Apogee alt
476.1 km
Semi-major
6,853.4 km
B*
3.2937e-4
RAAN
44.9888°
Arg perigee
90.4791°
Mean anomaly
269.6354°
Rev number
3,429

§ Raw data

STARLINK-356491 66125U 25237M   26144.96774457  .00009408  00000+0  32937-3 0  99922 66125  53.1605  44.9888 0001259  90.4791 269.6354 15.30198446 34294

JSON: /api/v1/satellites/66125 · /tle

For live sub-satellite position, see the globe view (requires WebGL).

§ Visibility from observer

Set your observer location to see the next 7 days of passes ≥ 10°. The values pass through the URL so the page stays shareable.

No JS? Fill the form by hand. The geolocation button needs JavaScript.